Redmond, OR

7:50 PM PDT on October 18, 2019 (GMT -0700)
Roberts Field Airport

Weather History for KRDM - July, 2019

Change the Weather History Date:

Thursday, July 25, 2019

  Actual Average Record
Temperature  
Mean Temperature 68 °F 68 °F  
Max Temperature 91 °F 88 °F 103 °F (1978)
Min Temperature 44 °F 47 °F 32 °F (1963)
Degree Days  
Heating Degree Days 0 1  
Month to date heating degree days 62  
Since 1 June heating degree days 279  
Since 1 July heating degree days 62  
Cooling Degree Days 2 4  
Month to date cooling degree days 76  
Year to date cooling degree days 105  
Since 1 June cooling degree days 100  
Growing Degree Days 18 (Base 50)    
Moisture  
Dew Point 33 °F    
Average Humidity 29    
Maximum Humidity 58    
Minimum Humidity 12    
Precipitation  
Precipitation 0.00 in 0.02 in 0.47 in (1965)
Month to date precipitation 0.45  
Year to date precipitation 5.13  
Sea Level Pressure  
Sea Level Pressure 30.05 in    
Wind  
Wind Speed 6 mph (NW)    
Max Wind Speed 17 mph    
Max Gust Speed 23 mph    
Visibility 10 miles    
Events      
T = Trace of Precipitation, MM = Missing Value Source: NWS Daily Summary

Daily Weather History Graph

Daily Weather History Graph

Search for Another Location

Airport or City:

Astronomy

Jul. 25, 2019 Rise Set
Actual Time 5:44 AM PDT 8:37 PM PDT
Civil Twilight 5:10 AM PDT 9:11 PM PDT
Nautical Twilight 4:27 AM PDT 9:54 PM PDT
Astronomical Twilight 3:36 AM PDT 10:44 PM PDT
Moon 12:38 AM PDT (7/25) 2:18 PM PDT (7/25)
Length of Visible Light 16h 00m
Length of Day
14h 52m
Last Quarter, 43% of the Moon is Illuminated
Jul 25
Last Quarter
Jul 31
New
Aug 7
First Quarter
Aug 15
Full
Aug 23
Last Quarter

Hourly Weather History & Observations

Time (PDT) Temp. Windchill Dew Point Humidity Pressure Visibility Wind Dir Wind Speed Gust Speed Precip Events Conditions
12:56 AM 63.0 °F - 34.0 °F 34% 30.10 in 10.0 mi NW 9.2 mph - N/A   Clear
1:56 AM 52.0 °F - 34.0 °F 50% 30.12 in 10.0 mi Calm Calm - N/A   Clear
2:56 AM 46.9 °F - 32.0 °F 56% 30.12 in 10.0 mi SSE 4.6 mph - N/A   Clear
3:56 AM 48.0 °F - 30.0 °F 50% 30.12 in 10.0 mi SSE 5.8 mph - N/A   Clear
4:56 AM 46.9 °F - 30.9 °F 54% 30.12 in 10.0 mi Variable 3.5 mph - N/A   Clear
5:56 AM 44.1 °F 41.5 °F 30.0 °F 58% 30.13 in 10.0 mi SE 4.6 mph - N/A   Clear
6:56 AM 53.1 °F - 33.1 °F 47% 30.12 in 10.0 mi South 5.8 mph - N/A   Clear
7:56 AM 60.1 °F - 35.1 °F 39% 30.12 in 10.0 mi Calm Calm - N/A   Clear
8:56 AM 66.0 °F - 36.0 °F 33% 30.12 in 10.0 mi Calm Calm - N/A   Clear
10:56 AM 75.9 °F - 33.1 °F 21% 30.09 in 10.0 mi Calm Calm - N/A   Clear
11:56 AM 80.1 °F - 32.0 °F 17% 30.07 in 10.0 mi Variable 6.9 mph - N/A   Clear
12:56 PM 84.0 °F - 33.1 °F 16% 30.04 in 10.0 mi Variable 5.8 mph - N/A   Clear
1:56 PM 87.1 °F - 35.1 °F 16% 30.04 in 10.0 mi Variable 4.6 mph - N/A   Clear
2:56 PM 89.1 °F - 39.0 °F 17% 30.02 in 10.0 mi NW 9.2 mph 18.4 mph N/A   Clear
3:56 PM 91.9 °F - 34.0 °F 13% 29.99 in 10.0 mi NNW 15.0 mph 21.9 mph N/A   Clear
4:56 PM 91.9 °F - 32.0 °F 12% 29.97 in 10.0 mi NNW 16.1 mph 23.0 mph N/A   Clear
5:56 PM 91.0 °F - 33.1 °F 13% 29.96 in 10.0 mi NNW 17.3 mph 23.0 mph N/A   Clear
6:56 PM 89.1 °F - 32.0 °F 13% 29.94 in 10.0 mi North 13.8 mph - N/A   Clear
7:56 PM 84.9 °F - 34.0 °F 16% 29.95 in 10.0 mi NNW 11.5 mph - N/A   Clear
8:56 PM 79.0 °F - 34.0 °F 20% 29.96 in 10.0 mi North 9.2 mph - N/A   Clear
9:56 PM 77.0 °F - 30.0 °F 18% 29.99 in 10.0 mi North 9.2 mph - N/A   Clear
10:56 PM 73.0 °F - 32.0 °F 22% 29.99 in 10.0 mi WNW 4.6 mph - N/A   Clear
11:56 PM 66.9 °F - 30.9 °F 26% 29.99 in 10.0 mi SW 4.6 mph - N/A   Clear